WIZ985 EGCC-EGKK

Flight info

Callsign WIZ985
Flight time 0h 37m
Altitude 19000
Route LISTO2S LISTO L612 HON N859 KIDLI KIDLI1G
Aircraft A320/M-SDE2E3FGHIJ4J5M1RWXYZ/LB1

Departure

Time 2026-05-04 12:03
Airport Manchester Airport (EGCC)

Arrival

Time 2026-05-04 12:40
Airport London Gatwick Airport (EGKK)
Time Latitude Longitude Altitude Speed Heading
2026-05-04 11:33 53.35925 -2.26988 255 ft 0 kts 275°
2026-05-04 11:49 53.35924 -2.26973 255 ft 4 kts 276°
2026-05-04 11:49 53.35919 -2.26929 255 ft 4 kts 289°
2026-05-04 11:49 53.35908 -2.26888 255 ft 4 kts 297°
2026-05-04 11:50 53.35899 -2.26850 256 ft 4 kts 257°
2026-05-04 11:50 53.35901 -2.26840 256 ft 0 kts 230°
2026-05-04 11:55 53.35847 -2.26954 256 ft 6 kts 236°
2026-05-04 11:55 53.35820 -2.27028 255 ft 10 kts 239°
2026-05-04 11:56 53.35800 -2.27134 255 ft 8 kts 280°
2026-05-04 11:56 53.35821 -2.27240 255 ft 11 kts 260°
2026-05-04 11:56 53.35767 -2.27364 255 ft 15 kts 230°
2026-05-04 11:56 53.35707 -2.27490 253 ft 14 kts 230°
2026-05-04 11:57 53.35617 -2.27658 244 ft 23 kts 225°
2026-05-04 11:57 53.35521 -2.27817 238 ft 18 kts 224°
2026-05-04 11:57 53.35422 -2.27976 237 ft 22 kts 224°
2026-05-04 11:57 53.35320 -2.28139 237 ft 21 kts 224°
2026-05-04 11:58 53.35220 -2.28323 232 ft 21 kts 231°
2026-05-04 11:58 53.35131 -2.28508 227 ft 21 kts 232°
2026-05-04 11:58 53.35036 -2.28701 228 ft 23 kts 228°
2026-05-04 11:58 53.34921 -2.28904 225 ft 23 kts 226°
2026-05-04 11:59 53.34799 -2.29127 217 ft 26 kts 230°
2026-05-04 11:59 53.34714 -2.29293 215 ft 11 kts 222°
2026-05-04 11:59 53.34682 -2.29326 211 ft 2 kts 203°
2026-05-04 11:59 53.34674 -2.29330 211 ft 0 kts 199°
2026-05-04 12:00 53.34673 -2.29331 211 ft 1 kts 198°
2026-05-04 12:00 53.34661 -2.29336 211 ft 2 kts 192°
2026-05-04 12:00 53.34639 -2.29341 217 ft 4 kts 186°
2026-05-04 12:01 53.34608 -2.29339 213 ft 5 kts 172°
2026-05-04 12:01 53.34566 -2.29312 222 ft 8 kts 149°
2026-05-04 12:02 53.36140 -2.25911 711 ft 173 kts 51°
2026-05-04 12:03 53.36924 -2.24319 1311 ft 183 kts 50°
2026-05-04 12:03 53.37636 -2.22418 1600 ft 217 kts 77°
2026-05-04 12:03 53.37494 -2.19730 1806 ft 253 kts 114°
2026-05-04 12:03 53.36322 -2.17490 2634 ft 259 kts 146°
2026-05-04 12:04 53.34695 -2.16226 3633 ft 264 kts 172°
2026-05-04 12:04 53.32838 -2.16460 4483 ft 271 kts 191°
2026-05-04 12:04 53.30980 -2.17031 5464 ft 273 kts 188°
2026-05-04 12:04 53.29070 -2.17438 6273 ft 285 kts 187°
2026-05-04 12:05 53.27054 -2.17794 7170 ft 286 kts 187°
2026-05-04 12:05 53.25114 -2.18137 8205 ft 285 kts 186°
2026-05-04 12:05 53.23130 -2.18483 9122 ft 288 kts 186°
2026-05-04 12:05 53.21134 -2.18816 10071 ft 288 kts 186°
2026-05-04 12:06 53.19088 -2.19148 10483 ft 308 kts 186°
2026-05-04 12:06 53.16872 -2.19489 10702 ft 331 kts 184°
2026-05-04 12:06 53.14500 -2.19327 10964 ft 350 kts 172°
2026-05-04 12:06 53.12110 -2.18347 11542 ft 358 kts 161°
2026-05-04 12:07 53.09793 -2.16764 12215 ft 362 kts 158°
2026-05-04 12:07 53.07489 -2.15158 12907 ft 365 kts 158°
2026-05-04 12:07 53.05133 -2.13529 13610 ft 369 kts 158°
2026-05-04 12:07 53.02754 -2.11890 14274 ft 372 kts 158°
2026-05-04 12:08 53.00354 -2.10238 14884 ft 375 kts 158°
2026-05-04 12:08 52.97937 -2.08574 15485 ft 377 kts 158°
2026-05-04 12:08 52.95503 -2.06899 16094 ft 380 kts 158°
2026-05-04 12:08 52.93051 -2.05213 16698 ft 383 kts 158°
2026-05-04 12:09 52.90581 -2.03517 17284 ft 386 kts 158°
2026-05-04 12:09 52.88091 -2.01811 17890 ft 389 kts 159°
2026-05-04 12:09 52.85670 -2.00154 18242 ft 380 kts 159°
2026-05-04 12:09 52.83370 -1.98582 18393 ft 356 kts 159°
2026-05-04 12:10 52.81182 -1.97082 18591 ft 324 kts 159°
2026-05-04 12:10 52.79167 -1.95695 18650 ft 305 kts 159°
2026-05-04 12:10 52.77246 -1.94383 18762 ft 296 kts 159°
2026-05-04 12:10 52.75278 -1.93049 18885 ft 316 kts 159°
2026-05-04 12:11 52.73185 -1.91637 19035 ft 334 kts 159°
2026-05-04 12:11 52.70968 -1.90143 19080 ft 355 kts 159°
2026-05-04 12:11 52.68617 -1.88554 19077 ft 375 kts 159°
2026-05-04 12:11 52.66140 -1.86880 19064 ft 394 kts 159°
2026-05-04 12:12 52.63584 -1.85150 19068 ft 411 kts 159°
2026-05-04 12:12 52.60893 -1.83329 19053 ft 427 kts 159°
2026-05-04 12:12 52.58111 -1.81449 19059 ft 434 kts 159°
2026-05-04 12:12 52.55315 -1.79560 19064 ft 436 kts 159°
2026-05-04 12:13 52.52506 -1.77664 19061 ft 436 kts 159°
2026-05-04 12:14 52.32908 -1.64739 19064 ft 443 kts 161°
2026-05-04 12:15 52.29980 -1.63150 19048 ft 439 kts 163°
2026-05-04 12:15 52.27076 -1.61679 19050 ft 436 kts 163°
2026-05-04 12:15 52.24249 -1.60197 19439 ft 432 kts 159°
2026-05-04 12:15 52.21377 -1.58536 19976 ft 432 kts 157°
2026-05-04 12:16 52.18538 -1.56914 20446 ft 432 kts 160°
2026-05-04 12:16 52.15749 -1.55629 20854 ft 415 kts 163°
2026-05-04 12:16 52.13025 -1.54402 20418 ft 402 kts 161°
2026-05-04 12:16 52.10345 -1.53054 19476 ft 406 kts 160°
2026-05-04 12:17 52.07706 -1.51634 19062 ft 421 kts 159°
2026-05-04 12:17 52.04915 -1.50052 19009 ft 428 kts 160°
2026-05-04 12:17 52.02225 -1.48584 19169 ft 432 kts 162°
2026-05-04 12:17 51.99353 -1.47130 19090 ft 431 kts 164°
2026-05-04 12:18 51.96534 -1.45808 18846 ft 413 kts 165°
2026-05-04 12:18 51.93863 -1.44571 18613 ft 408 kts 165°
2026-05-04 12:18 51.91367 -1.43386 18317 ft 404 kts 164°
2026-05-04 12:18 51.88728 -1.42093 17661 ft 399 kts 163°
2026-05-04 12:19 51.86096 -1.40764 17064 ft 394 kts 163°
2026-05-04 12:19 51.83500 -1.39429 16482 ft 389 kts 163°
2026-05-04 12:19 51.80944 -1.38108 15927 ft 383 kts 163°
2026-05-04 12:19 51.78501 -1.36818 15358 ft 379 kts 161°
2026-05-04 12:20 51.76131 -1.35027 14863 ft 375 kts 151°
2026-05-04 12:20 51.74039 -1.32851 14718 ft 383 kts 148°
2026-05-04 12:20 51.71794 -1.30496 14480 ft 386 kts 148°
2026-05-04 12:20 51.69539 -1.28159 14215 ft 386 kts 149°
2026-05-04 12:21 51.67377 -1.25927 13975 ft 385 kts 149°
2026-05-04 12:21 51.65125 -1.23602 13728 ft 386 kts 148°
2026-05-04 12:21 51.62860 -1.21260 13476 ft 384 kts 149°
2026-05-04 12:21 51.60622 -1.18944 13234 ft 382 kts 148°
2026-05-04 12:22 51.58415 -1.16656 13000 ft 380 kts 148°
2026-05-04 12:22 51.56247 -1.14407 12770 ft 379 kts 149°
2026-05-04 12:22 51.54056 -1.12133 12532 ft 377 kts 149°
2026-05-04 12:22 51.51853 -1.09850 12295 ft 375 kts 149°
2026-05-04 12:23 51.49655 -1.07582 12062 ft 374 kts 149°
2026-05-04 12:23 51.47507 -1.05313 11788 ft 373 kts 145°
2026-05-04 12:23 51.45620 -1.02479 10792 ft 382 kts 134°
2026-05-04 12:23 51.43847 -0.99345 10295 ft 374 kts 133°
2026-05-04 12:24 51.42146 -0.96255 10107 ft 367 kts 133°
2026-05-04 12:24 51.40514 -0.93277 10010 ft 355 kts 133°
2026-05-04 12:24 51.38931 -0.90395 10021 ft 335 kts 133°
2026-05-04 12:24 51.37428 -0.87678 10024 ft 318 kts 133°
2026-05-04 12:25 51.35994 -0.85100 10024 ft 302 kts 133°
2026-05-04 12:25 51.34770 -0.82457 10026 ft 293 kts 124°
2026-05-04 12:25 51.33705 -0.79690 10027 ft 292 kts 123°
2026-05-04 12:25 51.32675 -0.76963 10025 ft 290 kts 123°
2026-05-04 12:26 51.31626 -0.74186 9623 ft 297 kts 123°
2026-05-04 12:26 51.30557 -0.71362 9132 ft 302 kts 122°
2026-05-04 12:26 51.29493 -0.68547 9012 ft 291 kts 122°
2026-05-04 12:26 51.28462 -0.65819 9024 ft 285 kts 122°
2026-05-04 12:27 51.27444 -0.63130 9027 ft 284 kts 122°
2026-05-04 12:27 51.26423 -0.60432 9029 ft 284 kts 122°
2026-05-04 12:27 51.25401 -0.57733 9026 ft 284 kts 122°
2026-05-04 12:27 51.24378 -0.55034 9025 ft 284 kts 122°
2026-05-04 12:28 51.23371 -0.52377 9024 ft 280 kts 122°
2026-05-04 12:28 51.22410 -0.49840 9019 ft 260 kts 122°
2026-05-04 12:28 51.21494 -0.47423 9020 ft 252 kts 123°
2026-05-04 12:28 51.20589 -0.45039 9025 ft 251 kts 123°
2026-05-04 12:29 51.19688 -0.42661 9027 ft 251 kts 122°
2026-05-04 12:29 51.18730 -0.40395 9029 ft 250 kts 130°
2026-05-04 12:29 51.17610 -0.38284 8999 ft 250 kts 132°
2026-05-04 12:29 51.16441 -0.36147 8139 ft 263 kts 132°
2026-05-04 12:30 51.15201 -0.33894 7344 ft 280 kts 132°
2026-05-04 12:30 51.13925 -0.31576 7091 ft 275 kts 132°
2026-05-04 12:30 51.12684 -0.29323 6992 ft 265 kts 132°
2026-05-04 12:30 51.11559 -0.27279 6997 ft 250 kts 132°
2026-05-04 12:31 51.10333 -0.25401 7003 ft 241 kts 150°
2026-05-04 12:31 51.08748 -0.24671 7009 ft 239 kts 182°
2026-05-04 12:31 51.07292 -0.25205 6798 ft 237 kts 208°
2026-05-04 12:31 51.06060 -0.26834 6328 ft 235 kts 227°
2026-05-04 12:32 51.05092 -0.28639 5833 ft 236 kts 230°
2026-05-04 12:32 51.03458 -0.33038 4824 ft 233 kts 257°
2026-05-04 12:32 51.03157 -0.35572 4301 ft 233 kts 260°
2026-05-04 12:33 51.02901 -0.38109 3802 ft 232 kts 262°
2026-05-04 12:33 51.02903 -0.40651 3305 ft 231 kts 278°
2026-05-04 12:33 51.03170 -0.43139 3024 ft 227 kts 281°
2026-05-04 12:33 51.03473 -0.45629 3001 ft 232 kts 281°
2026-05-04 12:34 51.03787 -0.48148 2998 ft 233 kts 283°
2026-05-04 12:34 51.04453 -0.50427 2997 ft 232 kts 313°
2026-05-04 12:34 51.05748 -0.51833 2999 ft 221 kts 340°
2026-05-04 12:34 51.07191 -0.52246 3005 ft 204 kts
2026-05-04 12:35 51.08537 -0.51818 3001 ft 193 kts 24°
2026-05-04 12:35 51.09658 -0.50723 3001 ft 189 kts 43°
2026-05-04 12:35 51.10470 -0.49105 3002 ft 187 kts 63°
2026-05-04 12:35 51.10889 -0.47151 3010 ft 187 kts 78°
2026-05-04 12:36 51.11172 -0.45132 3002 ft 187 kts 78°
2026-05-04 12:36 51.11447 -0.43180 2970 ft 179 kts 77°
2026-05-04 12:36 51.11715 -0.41277 2805 ft 175 kts 77°
2026-05-04 12:36 51.11978 -0.39405 2587 ft 171 kts 77°
2026-05-04 12:37 51.12233 -0.37582 2394 ft 166 kts 77°
2026-05-04 12:37 51.12482 -0.35800 2195 ft 163 kts 77°
2026-05-04 12:37 51.12729 -0.34036 1948 ft 163 kts 77°
2026-05-04 12:37 51.12976 -0.32269 1727 ft 163 kts 77°
2026-05-04 12:38 51.13221 -0.30512 1497 ft 162 kts 77°
2026-05-04 12:38 51.13465 -0.28758 1283 ft 162 kts 77°
2026-05-04 12:38 51.13703 -0.27044 1058 ft 161 kts 77°
2026-05-04 12:38 51.13941 -0.25333 837 ft 159 kts 77°
2026-05-04 12:39 51.14178 -0.23621 623 ft 158 kts 77°
2026-05-04 12:39 51.14414 -0.21919 404 ft 157 kts 77°
2026-05-04 12:39 51.14644 -0.20240 218 ft 145 kts 78°
2026-05-04 12:39 51.14836 -0.18934 206 ft 82 kts 77°
2026-05-04 12:40 51.14916 -0.18303 209 ft 52 kts 78°
2026-05-04 12:40 51.15010 -0.17902 214 ft 20 kts 52°
2026-05-04 12:40 51.15099 -0.17767 205 ft 18 kts 11°
2026-05-04 12:40 51.15186 -0.17651 207 ft 19 kts 69°
2026-05-04 12:41 51.15206 -0.17521 208 ft 0 kts 78°
2026-05-04 12:42 51.15207 -0.17513 209 ft 2 kts 77°
2026-05-04 12:43 51.15214 -0.17465 204 ft 7 kts 76°
2026-05-04 12:43 51.15224 -0.17396 207 ft 6 kts 75°
2026-05-04 12:43 51.15230 -0.17349 213 ft 6 kts 79°
2026-05-04 12:43 51.15242 -0.17260 204 ft 10 kts 77°
2026-05-04 12:44 51.15260 -0.17131 213 ft 14 kts 77°
2026-05-04 12:44 51.15284 -0.16960 204 ft 18 kts 78°
2026-05-04 12:44 51.15312 -0.16753 207 ft 21 kts 76°
2026-05-04 12:44 51.15361 -0.16564 214 ft 15 kts 78°
2026-05-04 12:45 51.15441 -0.16513 214 ft 13 kts 336°
2026-05-04 12:45 51.15450 -0.16662 208 ft 16 kts 261°
2026-05-04 12:45 51.15444 -0.16857 213 ft 19 kts 259°
2026-05-04 12:45 51.15421 -0.17025 206 ft 12 kts 257°
2026-05-04 12:46 51.15419 -0.17037 206 ft 0 kts 257°
2026-05-04 12:46 51.15418 -0.17043 204 ft 2 kts 257°
2026-05-04 12:46 51.15416 -0.17056 214 ft 3 kts 258°
2026-05-04 12:46 51.15410 -0.17105 205 ft 6 kts 257°
2026-05-04 12:47 51.15388 -0.17184 211 ft 9 kts 254°
2026-05-04 12:47 51.15427 -0.17268 211 ft 12 kts 340°
2026-05-04 12:47 51.15522 -0.17304 204 ft 16 kts 346°
2026-05-04 12:47 51.15609 -0.17261 207 ft 16 kts 67°
2026-05-04 12:48 51.15638 -0.17080 209 ft 14 kts 77°
2026-05-04 12:48 51.15643 -0.17037 204 ft 4 kts 78°
2026-05-04 12:48 51.15653 -0.16969 209 ft 8 kts 76°
2026-05-04 12:48 51.15669 -0.16857 207 ft 12 kts 77°
2026-05-04 12:49 51.15635 -0.16787 204 ft 5 kts 168°
2026-05-04 12:49 51.15602 -0.16776 204 ft 0 kts 167°